This is the latest recevied weather packets stored in our database for station/object N2UGS-WX. If no packets are shown the sender has not sent any weather packets the latest 10 day(s).
| Time | Temp. | Humidity | Pressure | Rain* | Wind** | Luminosity | Snow |
|---|---|---|---|---|---|---|---|
| 1778060102 | 7.22° C | 99% | 1008.8 hPa | 1.52 mm | - | - | - |
| 1778059203 | 7.22° C | 99% | 1008.8 hPa | 1.52 mm | - | - | - |
| 1778058542 | 7.22° C | 99% | 1008.8 hPa | 1.78 mm | - | - | - |
| 1778057702 | 7.78° C | 99% | 1008.5 hPa | 1.52 mm | - | - | - |
| 1778056742 | 7.78° C | 99% | 1008.5 hPa | 1.52 mm | - | - | - |
| 1778056142 | 7.78° C | 99% | 1008.5 hPa | 1.52 mm | - | - | - |
| 1778055302 | 7.78° C | 99% | 1008.5 hPa | 1.52 mm | - | - | - |
| 1778054642 | 8.33° C | 99% | 1008.5 hPa | 1.27 mm | - | - | - |
| 1778053802 | 8.33° C | 99% | 1008.5 hPa | 1.02 mm | - | - | - |
| 1778052901 | 8.33° C | 99% | 1008.5 hPa | 1.52 mm | - | - | - |
| 1778051942 | 8.33° C | 99% | 1008.5 hPa | 1.52 mm | - | - | - |
| 1778051102 | 8.33° C | 99% | 1008.8 hPa | 1.27 mm | - | - | - |
| 1778050443 | 8.33° C | 99% | 1009.1 hPa | 1.02 mm | - | - | - |
| 1778049842 | 8.33° C | 99% | 1009.1 hPa | 1.02 mm | - | - | - |
| 1778049002 | 8.33° C | 99% | 1008.8 hPa | 0.76 mm | - | - | - |
| 1778048102 | 8.89° C | 99% | 1008.5 hPa | 1.27 mm | - | - | - |
| 1778047202 | 8.89° C | 98% | 1008.8 hPa | 1.27 mm | - | - | - |
| 1778046302 | 8.89° C | 98% | 1009.1 hPa | 2.54 mm | - | - | - |
| 1778045403 | 8.89° C | 98% | 1009.5 hPa | 2.79 mm | - | - | - |
| 1778044502 | 8.89° C | 98% | 1009.8 hPa | 3.05 mm | - | - | - |
| 1778043602 | 8.89° C | 98% | 1009.5 hPa | 2.54 mm | - | - | - |
| 1778042702 | 8.89° C | 98% | 1009.5 hPa | 1.52 mm | - | - | - |
| 1778041802 | 8.89° C | 98% | 1009.1 hPa | 0.76 mm | - | - | - |
| 1778040903 | 8.89° C | 98% | 1009.1 hPa | 0.51 mm | - | - | - |
| 1778040003 | 8.89° C | 98% | 1009.1 hPa | 0.51 mm | - | - | - |
* Rain latest hour (hover to see other rain measurements)
** Current wind speed in m/s (hover to see current wind gust speed)